Time,TemperatureF,DewpointF,PressureIn,WindDirection,WindDirectionDegrees,WindSpeedMPH,WindSpeedGustMPH,Humidity,HourlyPrecipIn,Conditions,Clouds,dailyrainin,SoftwareType,DateUTC
2013-01-23 00:05:00,47.3,42.4,30.04,NNW,342,0.0,0.0,83,0.00,,,0.00,Wunderground v.1.15,2013-01-23 08:05:00,
2013-01-23 00:15:00,47.8,42.9,30.04,NNW,342,0.0,0.0,83,0.00,,,0.00,Wunderground v.1.15,2013-01-23 08:15:00,
2013-01-23 00:24:00,47.7,42.5,30.05,NNW,342,0.0,0.0,82,0.00,,,0.00,Wunderground v.1.15,2013-01-23 08:24:00,
2013-01-23 00:34:00,47.4,42.5,30.04,NNW,342,0.0,0.0,83,0.00,,,0.00,Wunderground v.1.15,2013-01-23 08:34:00,
2013-01-23 00:54:00,47.5,42.6,30.04,NNW,342,0.0,0.0,83,0.00,,,0.00,Wunderground v.1.15,2013-01-23 08:54:00,
2013-01-23 01:20:00,47.0,42.4,30.03,NNW,342,0.0,0.0,84,0.00,,,0.00,Wunderground v.1.15,2013-01-23 09:20:00,
2013-01-23 01:35:00,47.3,42.4,30.03,NNW,342,0.0,0.0,83,0.00,,,0.00,Wunderground v.1.15,2013-01-23 09:35:00,
2013-01-23 01:44:00,47.0,42.4,30.03,NNW,342,0.0,0.0,84,0.00,,,0.00,Wunderground v.1.15,2013-01-23 09:44:00,
2013-01-23 01:54:00,46.8,42.2,30.03,NNW,342,0.0,0.0,84,0.00,,,0.00,Wunderground v.1.15,2013-01-23 09:54:00,
2013-01-23 02:04:00,46.7,42.4,30.02,NNW,342,0.0,0.0,85,0.00,,,0.00,Wunderground v.1.15,2013-01-23 10:04:00,
2013-01-23 02:14:00,46.7,42.1,30.02,SSE,147,0.0,2.0,84,0.00,,,0.00,Wunderground v.1.15,2013-01-23 10:14:00,
2013-01-23 02:20:00,46.9,42.3,30.02,SSE,147,1.0,1.0,84,0.00,,,0.00,Wunderground v.1.15,2013-01-23 10:20:00,
2013-01-23 02:30:00,46.9,42.3,30.02,SSE,147,0.0,0.0,84,0.00,,,0.00,Wunderground v.1.15,2013-01-23 10:30:00,
2013-01-23 02:40:00,46.9,42.3,30.02,SSE,147,0.0,0.0,84,0.00,,,0.00,Wunderground v.1.15,2013-01-23 10:40:00,
2013-01-23 02:45:00,46.8,42.5,30.02,SSE,147,0.0,0.0,85,0.00,,,0.00,Wunderground v.1.15,2013-01-23 10:45:00,
2013-01-23 03:14:00,45.8,41.9,30.01,West,280,1.0,1.0,86,0.00,,,0.00,Wunderground v.1.15,2013-01-23 11:14:00,
2013-01-23 03:20:00,45.6,42.0,30.00,West,280,0.0,0.0,87,0.00,,,0.00,Wunderground v.1.15,2013-01-23 11:20:00,
2013-01-23 03:54:00,45.6,42.0,30.00,West,280,0.0,0.0,87,0.00,,,0.00,Wunderground v.1.15,2013-01-23 11:54:00,
2013-01-23 04:00:00,45.6,42.0,30.00,West,280,0.0,0.0,87,0.00,,,0.00,Wunderground v.1.15,2013-01-23 12:00:00,
2013-01-23 04:10:00,45.5,41.9,29.99,West,280,0.0,0.0,87,0.00,,,0.00,Wunderground v.1.15,2013-01-23 12:10:00,
2013-01-23 04:20:00,45.6,41.7,29.99,West,280,0.0,0.0,86,0.00,,,0.00,Wunderground v.1.15,2013-01-23 12:20:00,
2013-01-23 04:35:00,45.5,41.9,29.99,West,280,0.0,0.0,87,0.00,,,0.00,Wunderground v.1.15,2013-01-23 12:35:00,
2013-01-23 04:45:00,45.4,41.8,29.99,West,280,0.0,0.0,87,0.00,,,0.00,Wunderground v.1.15,2013-01-23 12:45:00,
2013-01-23 04:50:00,45.4,41.8,29.99,West,280,0.0,0.0,87,0.00,,,0.00,Wunderground v.1.15,2013-01-23 12:50:00,
2013-01-23 05:30:00,46.3,42.0,29.96,SW,217,0.0,0.0,85,0.00,,,0.00,Wunderground v.1.15,2013-01-23 13:30:00,
2013-01-23 05:44:00,46.1,41.8,29.97,SW,217,0.0,0.0,85,0.00,,,0.00,Wunderground v.1.15,2013-01-23 13:44:00,
2013-01-23 05:54:00,45.8,41.9,29.97,SW,217,0.0,0.0,86,0.00,,,0.00,Wunderground v.1.15,2013-01-23 13:54:00,
2013-01-23 06:14:00,45.1,41.5,29.98,SW,217,0.0,0.0,87,0.00,,,0.00,Wunderground v.1.15,2013-01-23 14:14:00,
2013-01-23 06:25:00,44.9,41.6,29.99,SW,217,0.0,2.0,88,0.00,,,0.00,Wunderground v.1.15,2013-01-23 14:25:00,
2013-01-23 06:34:00,45.2,41.9,29.99,SW,217,0.0,0.0,88,0.00,,,0.00,Wunderground v.1.15,2013-01-23 14:34:00,
2013-01-23 06:45:00,45.4,42.1,29.99,SW,217,0.0,0.0,88,0.00,,,0.00,Wunderground v.1.15,2013-01-23 14:45:00,
2013-01-23 06:55:00,45.8,42.2,29.99,SW,217,0.0,0.0,87,0.00,,,0.00,Wunderground v.1.15,2013-01-23 14:55:00,
2013-01-23 07:00:00,45.8,42.2,30.00,SW,217,0.0,0.0,87,0.00,,,0.00,Wunderground v.1.15,2013-01-23 15:00:00,
2013-01-23 07:10:00,46.0,42.0,30.00,SW,217,0.0,0.0,86,0.00,,,0.00,Wunderground v.1.15,2013-01-23 15:10:00,
2013-01-23 07:15:00,46.0,42.0,29.99,SW,217,0.0,0.0,86,0.00,,,0.00,Wunderground v.1.15,2013-01-23 15:15:00,
2013-01-23 07:24:00,46.0,42.0,29.99,SW,217,0.0,0.0,86,0.00,,,0.00,Wunderground v.1.15,2013-01-23 15:24:00,
2013-01-23 07:34:00,46.0,42.0,29.99,SW,217,0.0,0.0,86,0.00,,,0.00,Wunderground v.1.15,2013-01-23 15:34:00,
2013-01-23 07:45:00,45.9,41.9,29.99,SW,217,0.0,0.0,86,0.00,,,0.00,Wunderground v.1.15,2013-01-23 15:45:00,
2013-01-23 07:54:00,46.0,42.0,30.00,SW,217,0.0,0.0,86,0.00,,,0.00,Wunderground v.1.15,2013-01-23 15:54:00,
2013-01-23 08:00:00,45.9,42.2,30.00,SW,217,0.0,0.0,87,0.00,,,0.00,Wunderground v.1.15,2013-01-23 16:00:00,
2013-01-23 08:10:00,46.4,42.4,30.01,SW,217,1.0,1.0,86,0.00,,,0.00,Wunderground v.1.15,2013-01-23 16:10:00,
2013-01-23 08:25:00,46.7,42.4,30.01,SW,217,0.0,0.0,85,0.00,,,0.00,Wunderground v.1.15,2013-01-23 16:25:00,
2013-01-23 08:35:00,46.9,42.3,30.01,SW,217,0.0,0.0,84,0.00,,,0.00,Wunderground v.1.15,2013-01-23 16:35:00,
2013-01-23 08:44:00,47.0,42.7,30.02,SW,217,0.0,0.0,85,0.00,,,0.00,Wunderground v.1.15,2013-01-23 16:44:00,
2013-01-23 08:50:00,47.0,42.7,30.01,SW,217,0.0,0.0,85,0.00,,,0.00,Wunderground v.1.15,2013-01-23 16:50:00,
2013-01-23 09:00:00,47.0,42.7,30.01,SW,217,0.0,0.0,85,0.00,,,0.00,Wunderground v.1.15,2013-01-23 17:00:00,
2013-01-23 09:14:00,47.2,42.9,30.02,SW,217,0.0,0.0,85,0.00,,,0.00,Wunderground v.1.15,2013-01-23 17:14:00,
2013-01-23 09:20:00,47.4,43.1,30.02,SW,215,0.0,0.0,85,0.00,,,0.00,Wunderground v.1.15,2013-01-23 17:20:00,
2013-01-23 09:30:00,47.5,42.9,30.03,ENE,76,0.0,0.0,84,0.00,,,0.00,Wunderground v.1.15,2013-01-23 17:30:00,
2013-01-23 09:45:00,47.4,43.1,30.04,SE,145,1.0,1.0,85,0.00,,,0.00,Wunderground v.1.15,2013-01-23 17:45:00,
2013-01-23 09:59:00,47.6,43.0,30.05,SSE,153,0.0,0.0,84,0.00,,,0.00,Wunderground v.1.15,2013-01-23 17:59:00,
2013-01-23 10:05:00,47.7,43.1,30.04,SSE,156,0.0,0.0,84,0.00,,,0.00,Wunderground v.1.15,2013-01-23 18:05:00,
2013-01-23 10:09:00,47.9,43.0,30.04,SSE,156,0.0,1.0,83,0.00,,,0.00,Wunderground v.1.15,2013-01-23 18:09:00,
2013-01-23 10:20:00,48.5,43.6,30.04,SSE,156,0.0,0.0,83,0.00,,,0.00,Wunderground v.1.15,2013-01-23 18:20:00,
2013-01-23 10:30:00,49.0,43.4,30.04,East,84,0.0,0.0,81,0.00,,,0.00,Wunderground v.1.15,2013-01-23 18:30:00,
2013-01-23 10:40:00,49.5,43.3,30.05,ESE,123,0.0,5.0,79,0.00,,,0.00,Wunderground v.1.15,2013-01-23 18:40:00,
2013-01-23 10:45:00,49.6,43.4,30.05,ESE,109,2.0,5.0,79,0.00,,,0.00,Wunderground v.1.15,2013-01-23 18:45:00,
2013-01-23 11:05:00,50.6,44.3,30.05,North,11,0.0,1.0,79,0.00,,,0.00,Wunderground v.1.15,2013-01-23 19:05:00,
2013-01-23 11:15:00,50.8,44.5,30.05,North,11,0.0,0.0,79,0.00,,,0.00,Wunderground v.1.15,2013-01-23 19:15:00,
2013-01-23 11:20:00,51.0,44.7,30.05,North,11,0.0,0.0,79,0.00,,,0.00,Wunderground v.1.15,2013-01-23 19:20:00,
2013-01-23 11:25:00,51.0,44.7,30.05,North,11,0.0,0.0,79,0.00,,,0.00,Wunderground v.1.15,2013-01-23 19:25:00,
2013-01-23 11:50:00,51.0,44.4,30.04,North,11,0.0,0.0,78,0.00,,,0.00,Wunderground v.1.15,2013-01-23 19:50:00,
2013-01-23 11:55:00,51.2,44.9,30.04,North,11,0.0,0.0,79,0.00,,,0.00,Wunderground v.1.15,2013-01-23 19:55:00,
2013-01-23 12:05:00,51.5,44.9,30.04,North,11,0.0,0.0,78,0.00,,,0.00,Wunderground v.1.15,2013-01-23 20:05:00,
2013-01-23 12:20:00,51.6,45.3,30.04,ENE,70,0.0,1.0,79,0.00,,,0.00,Wunderground v.1.15,2013-01-23 20:20:00,
2013-01-23 12:30:00,51.5,45.9,30.04,ENE,67,0.0,0.0,81,0.00,,,0.00,Wunderground v.1.15,2013-01-23 20:30:00,
2013-01-23 12:40:00,51.5,45.9,30.03,ENE,71,0.0,1.0,81,0.00,,,0.00,Wunderground v.1.15,2013-01-23 20:40:00,
2013-01-23 12:50:00,51.7,46.7,30.03,ENE,71,0.0,0.0,83,0.00,,,0.00,Wunderground v.1.15,2013-01-23 20:50:00,
2013-01-23 13:04:00,51.7,47.3,30.03,WNW,290,1.0,1.0,85,0.00,,,0.00,Wunderground v.1.15,2013-01-23 21:04:00,
2013-01-23 13:14:00,50.8,46.8,30.03,WNW,290,0.0,0.0,86,0.00,,,0.00,Wunderground v.1.15,2013-01-23 21:14:00,
2013-01-23 13:25:00,50.2,46.5,30.04,WNW,290,0.0,2.0,87,0.00,,,0.01,Wunderground v.1.15,2013-01-23 21:25:00,
2013-01-23 13:30:00,50.1,46.4,30.03,NW,305,1.0,1.0,87,0.00,,,0.01,Wunderground v.1.15,2013-01-23 21:30:00,
2013-01-23 13:45:00,50.0,46.6,30.03,NW,305,0.0,0.0,88,0.04,,,0.02,Wunderground v.1.15,2013-01-23 21:45:00,
2013-01-23 14:10:00,49.9,46.5,30.03,SE,126,0.0,0.0,88,0.00,,,0.03,Wunderground v.1.15,2013-01-23 22:10:00,
2013-01-23 14:25:00,50.0,46.6,30.02,SE,126,0.0,0.0,88,0.00,,,0.03,Wunderground v.1.15,2013-01-23 22:25:00,
2013-01-23 14:35:00,50.2,47.1,30.02,SE,126,0.0,0.0,89,0.00,,,0.03,Wunderground v.1.15,2013-01-23 22:35:00,
2013-01-23 14:54:00,50.3,46.6,30.02,SSE,166,1.0,1.0,87,0.00,,,0.03,Wunderground v.1.15,2013-01-23 22:54:00,
2013-01-23 15:19:00,50.8,46.5,30.02,SSE,147,0.0,2.0,85,0.00,,,0.03,Wunderground v.1.15,2013-01-23 23:19:00,
2013-01-23 15:40:00,51.1,47.7,30.01,NW,324,1.0,3.0,88,0.00,,,0.03,Wunderground v.1.15,2013-01-23 23:40:00,
2013-01-23 15:50:00,50.8,47.7,30.02,NW,320,0.0,0.0,89,0.00,,,0.03,Wunderground v.1.15,2013-01-23 23:50:00,
2013-01-23 16:04:00,50.7,47.9,30.03,NNW,329,1.0,1.0,90,0.00,,,0.03,Wunderground v.1.15,2013-01-24 00:04:00,
2013-01-23 16:10:00,50.7,47.9,30.03,NNW,340,0.0,1.0,90,0.00,,,0.03,Wunderground v.1.15,2013-01-24 00:10:00,
2013-01-23 16:15:00,50.8,48.0,30.03,NW,308,1.0,3.0,90,0.00,,,0.03,Wunderground v.1.15,2013-01-24 00:15:00,
2013-01-23 16:30:00,51.3,48.2,30.04,NNW,335,0.0,1.0,89,0.00,,,0.03,Wunderground v.1.15,2013-01-24 00:30:00,
2013-01-23 16:50:00,51.4,48.0,30.04,NNW,330,1.0,2.0,88,0.00,,,0.03,Wunderground v.1.15,2013-01-24 00:50:00,
2013-01-23 17:00:00,51.2,47.8,30.04,NNW,331,0.0,0.0,88,0.00,,,0.03,Wunderground v.1.15,2013-01-24 01:00:00,
2013-01-23 17:14:00,50.7,47.6,30.04,NW,305,0.0,0.0,89,0.00,,,0.03,Wunderground v.1.15,2013-01-24 01:14:00,
2013-01-23 17:20:00,50.5,47.4,30.05,NW,305,0.0,0.0,89,0.00,,,0.03,Wunderground v.1.15,2013-01-24 01:20:00,
2013-01-23 17:40:00,50.2,47.4,30.06,SW,223,1.0,1.0,90,0.00,,,0.03,Wunderground v.1.15,2013-01-24 01:40:00,
2013-01-23 17:49:00,50.2,47.4,30.06,SW,223,0.0,0.0,90,0.00,,,0.03,Wunderground v.1.15,2013-01-24 01:49:00,
2013-01-23 18:05:00,49.9,47.1,30.07,SW,223,0.0,0.0,90,0.00,,,0.03,Wunderground v.1.15,2013-01-24 02:05:00,
2013-01-23 18:24:00,51.2,47.2,30.08,ESE,113,2.0,2.0,86,0.00,,,0.03,Wunderground v.1.15,2013-01-24 02:24:00,
2013-01-23 18:44:00,51.7,47.3,30.07,ESE,113,0.0,0.0,85,0.00,,,0.03,Wunderground v.1.15,2013-01-24 02:44:00,
2013-01-23 19:00:00,50.8,47.1,30.06,ESE,113,0.0,0.0,87,0.00,,,0.03,Wunderground v.1.15,2013-01-24 03:00:00,
2013-01-23 19:05:00,50.6,46.9,30.06,ESE,113,1.0,1.0,87,0.00,,,0.03,Wunderground v.1.15,2013-01-24 03:05:00,
2013-01-23 19:15:00,51.0,47.3,30.07,ESE,113,0.0,0.0,87,0.00,,,0.03,Wunderground v.1.15,2013-01-24 03:15:00,
2013-01-23 19:34:00,51.8,47.1,30.07,ESE,118,1.0,1.0,84,0.00,,,0.03,Wunderground v.1.15,2013-01-24 03:34:00,
2013-01-23 19:45:00,51.5,47.1,30.08,ESE,120,1.0,1.0,85,0.00,,,0.03,Wunderground v.1.15,2013-01-24 03:45:00,
2013-01-23 19:54:00,52.1,47.4,30.08,SSE,161,1.0,1.0,84,0.00,,,0.03,Wunderground v.1.15,2013-01-24 03:54:00,
2013-01-23 20:04:00,51.8,47.4,30.08,SSE,161,0.0,0.0,85,0.00,,,0.03,Wunderground v.1.15,2013-01-24 04:04:00,
2013-01-23 20:10:00,51.4,47.4,30.08,SSE,161,0.0,0.0,86,0.00,,,0.03,Wunderground v.1.15,2013-01-24 04:10:00,
2013-01-23 20:20:00,50.9,47.5,30.08,SSE,161,0.0,0.0,88,0.00,,,0.04,Wunderground v.1.15,2013-01-24 04:20:00,
2013-01-23 20:34:00,50.1,47.3,30.07,SSE,161,0.0,0.0,90,0.00,,,0.04,Wunderground v.1.15,2013-01-24 04:34:00,
2013-01-23 20:40:00,50.0,47.5,30.07,NE,36,0.0,0.0,91,0.00,,,0.04,Wunderground v.1.15,2013-01-24 04:40:00,
2013-01-23 20:50:00,49.8,47.3,30.07,NE,46,0.0,0.0,91,0.00,,,0.04,Wunderground v.1.15,2013-01-24 04:50:00,
2013-01-23 20:59:00,49.6,47.1,30.07,NE,46,0.0,0.0,91,0.00,,,0.04,Wunderground v.1.15,2013-01-24 04:59:00,
2013-01-23 21:15:00,49.6,47.4,30.08,ESE,115,1.0,2.0,92,0.00,,,0.04,Wunderground v.1.15,2013-01-24 05:15:00,
2013-01-23 21:35:00,49.8,47.6,30.08,ENE,78,0.0,0.0,92,0.00,,,0.04,Wunderground v.1.15,2013-01-24 05:35:00,
2013-01-23 21:40:00,49.8,47.6,30.08,ESE,103,0.0,0.0,92,0.00,,,0.04,Wunderground v.1.15,2013-01-24 05:40:00,
2013-01-23 21:50:00,49.9,47.4,30.08,SSE,148,1.0,1.0,91,0.00,,,0.04,Wunderground v.1.15,2013-01-24 05:50:00,
2013-01-23 22:25:00,48.7,46.5,30.08,SSE,155,2.0,2.0,92,0.00,,,0.05,Wunderground v.1.15,2013-01-24 06:25:00,
2013-01-23 22:30:00,48.5,46.3,30.09,SSE,155,2.0,2.0,92,0.00,,,0.05,Wunderground v.1.15,2013-01-24 06:30:00,
2013-01-23 22:40:00,48.4,46.2,30.09,ESE,119,1.0,1.0,92,0.00,,,0.05,Wunderground v.1.15,2013-01-24 06:40:00,
2013-01-23 22:45:00,48.5,46.3,30.09,ESE,119,0.0,1.0,92,0.00,,,0.05,Wunderground v.1.15,2013-01-24 06:45:00,
2013-01-23 23:05:00,48.5,46.3,30.09,ESE,115,1.0,2.0,92,0.00,,,0.05,Wunderground v.1.15,2013-01-24 07:05:00,
2013-01-23 23:25:00,48.4,46.5,30.10,East,94,0.0,1.0,93,0.00,,,0.06,Wunderground v.1.15,2013-01-24 07:25:00,
2013-01-23 23:30:00,48.4,46.5,30.09,East,86,0.0,0.0,93,0.00,,,0.06,Wunderground v.1.15,2013-01-24 07:30:00,
2013-01-23 23:55:00,48.5,46.6,30.09,ESE,123,1.0,1.0,93,0.00,,,0.06,Wunderground v.1.15,2013-01-24 07:55:00,